[[{"header":{"parameterUnit":"m.s-1","parameterCategory":1,"la1":30.2992,"la2":30.254,"lo1":-89.0895,"lo2":-89.0443,"dy":0.0025,"dx":0.0025,"nx":19,"ny":19,"refTime":"2026-03-27T09:00:00:Z","depth":0,"parameterNumber":2,"parameterNumberName":"U-component_of_WINDS"},"data":[0,0,0,-3.2492,-3.2494,-3.2578,-3.2579,-3.2695,-3.2696,0,0,0,0,0,0,0,0,0,0,0,-3.2473,-3.2474,-3.2492,-3.2494,-3.2578,-3.2579,-3.2695,-3.2696,0,0,0,0,0,0,0,0,0,0,0,-3.2473,-3.2474,-3.2475,-3.2494,-3.2578,-3.2579,-3.2694,-3.2627,0,0,0,0,0,0,0,0,0,0,-3.2544,-3.2533,-3.2474,-3.2475,-3.2495,-3.2578,-3.2579,-3.2624,-3.2632,-3.2661,0,-3.2689,0,-3.2695,-3.2705,-3.2705,0,0,0,-3.2489,-3.2527,-3.2544,-3.2475,-3.2496,-3.2578,-3.2539,-3.2628,-3.2637,-3.2671,-3.2691,-3.2695,-3.2697,-3.2705,-3.2706,-3.2893,-3.2894,0,0,-3.2484,-3.2491,-3.2538,-3.255,-3.2539,-3.2536,-3.2542,-3.2633,-3.2655,-3.2691,-3.2697,-3.2699,-3.2706,-3.2707,-3.2892,-3.2893,0,0,0,-3.2474,-3.2488,-3.2503,-3.2545,-3.256,-3.2539,-3.2545,-3.2651,-3.2655,-3.2699,-3.27,-3.2707,-3.2708,-3.2891,-3.2893,-3.2956,0,0,0,-3.2471,-3.2483,-3.2501,-3.2507,-3.2559,-3.2607,-3.2561,-3.2649,-3.2659,-3.2699,-3.2707,-3.271,-3.289,-3.2892,-3.2951,-3.2985,0,0,0,-3.2465,-3.2482,-3.2496,-3.2507,-3.2544,-3.2605,-3.2615,-3.2651,-3.266,-3.2705,-3.271,-3.2889,-3.2891,-3.2948,-3.2978,-3.3037,0,0,0,-3.2461,-3.255,-3.2497,-3.2598,-3.2543,-3.2644,-3.2614,-3.2688,-3.2734,-3.2708,-3.289,-3.2892,-3.2946,-3.2974,-3.3033,-3.3088,-3.3112,0,0,-3.2578,-3.2565,-3.2623,-3.2578,-3.2691,-3.263,-3.2752,-3.2786,-3.2783,-3.2856,-3.2861,-3.2953,-3.2978,-3.3036,-3.324,-3.3259,0,0,0,-3.2662,-3.2705,-3.2733,-3.2778,-3.2807,-3.2835,-3.285,-3.2862,-3.2925,-3.2823,-3.2989,-3.3004,-3.3037,-3.3064,-3.308,-3.3108,-3.2905,-3.2904,-3.2904,-3.2839,-3.2831,-3.2927,-3.2929,-3.2973,-3.2988,-3.3022,-3.3042,-3.302,-3.3059,-3.3081,-3.3206,-3.3237,-3.3249,-3.3279,-3.3109,-3.3109,-3.3109,-3.311,-3.301,-3.3069,-3.3038,-3.3121,-3.3111,-3.318,-3.3197,-3.318,-3.3242,-3.3189,-3.3218,-3.3162,-3.327,-3.3296,-3.3114,-3.3114,-3.3113,-3.3112,-3.3112,-3.3125,-3.3152,-3.3167,-3.3231,-3.3281,-3.3279,-3.334,-3.3329,-3.3318,-3.3347,-3.3369,-3.3368,-3.3366,-3.3358,-3.3359,-3.3359,-3.336,-3.336,-3.336,-3.324,-3.3254,-3.3308,-3.3347,-3.3374,-3.3408,-3.3424,-3.345,-3.3476,-3.3462,-3.3462,-3.3437,-3.3282,-3.3244,-3.3367,-3.3366,-3.3365,-3.3364,-3.3364,-3.3418,-3.3376,-3.346,-3.3487,-3.3531,-3.3582,-3.3566,-3.362,-3.364,-3.367,-3.3638,-3.3525,-3.3511,-3.3498,-3.3467,-3.3639,-3.3639,-3.3639,-3.3639,-3.3517,-3.3508,-3.3591,-3.3636,-3.3678,-3.3672,-3.3766,-3.3778,-3.3784,-3.3795,-3.3768,-3.3725,-3.3712,-3.3705,-3.3688,-3.3659,-3.3876,-3.3877,-3.3877,-3.3626,-3.3621,-3.3704,-3.3711,-3.3744,-3.3773,-3.3861,-3.3912,-3.3909,-3.3886,-3.3804,-3.3794,-3.3724,-3.3702,-3.3678,-3.3651,-3.3597,0,0]},{"header":{"parameterUnit":"m.s-1","parameterCategory":1,"la1":30.2992,"la2":30.254,"lo1":-89.0895,"lo2":-89.0443,"dy":0.0025,"dx":0.0025,"nx":19,"ny":19,"refTime":"2026-03-27T09:00:00:Z","depth":0,"parameterNumber":3,"parameterNumberName":"V-component_of_WINDS"},"data":[0,0,0,-8.245,-8.2453,-8.2589,-8.259,-8.2772,-8.2773,0,0,0,0,0,0,0,0,0,0,0,-8.2418,-8.242,-8.245,-8.2453,-8.2589,-8.259,-8.2771,-8.2773,0,0,0,0,0,0,0,0,0,0,0,-8.2418,-8.242,-8.2422,-8.2454,-8.2589,-8.259,-8.2771,-8.2664,0,0,0,0,0,0,0,0,0,0,-8.2531,-8.2511,-8.2419,-8.2422,-8.2455,-8.2589,-8.259,-8.2659,-8.2671,-8.2715,0,-8.2759,0,-8.277,-8.2786,-8.2787,0,0,0,-8.2446,-8.2501,-8.2531,-8.2422,-8.2456,-8.2589,-8.2526,-8.2666,-8.2679,-8.2731,-8.2762,-8.2768,-8.2773,-8.2788,-8.2789,-8.3076,-8.3078,0,0,-8.2438,-8.2446,-8.2521,-8.254,-8.2524,-8.2521,-8.253,-8.2674,-8.2706,-8.2762,-8.2772,-8.2776,-8.2789,-8.279,-8.3075,-8.3077,0,0,0,-8.2422,-8.2442,-8.2467,-8.2533,-8.2557,-8.2526,-8.2535,-8.27,-8.2708,-8.2774,-8.2778,-8.279,-8.2793,-8.3073,-8.3075,-8.317,0,0,0,-8.2417,-8.2432,-8.2464,-8.247,-8.2555,-8.2631,-8.2559,-8.2698,-8.2714,-8.2777,-8.279,-8.2794,-8.3071,-8.3074,-8.3163,-8.3213,0,0,0,-8.2406,-8.2431,-8.2454,-8.2471,-8.253,-8.2628,-8.2644,-8.2701,-8.2717,-8.2787,-8.2795,-8.307,-8.3074,-8.3157,-8.3203,-8.3292,0,0,0,-8.2396,-8.2533,-8.2455,-8.2609,-8.2529,-8.2687,-8.2643,-8.2759,-8.2831,-8.2791,-8.3071,-8.3075,-8.3156,-8.3197,-8.3286,-8.3369,-8.3405,0,0,-8.2573,-8.2554,-8.2644,-8.2579,-8.2754,-8.2666,-8.2853,-8.2908,-8.2905,-8.3018,-8.3025,-8.3166,-8.3202,-8.3291,-8.3601,-8.3629,0,0,0,-8.2703,-8.2768,-8.2812,-8.2883,-8.2932,-8.2977,-8.3004,-8.3025,-8.3121,-8.2966,-8.3221,-8.3243,-8.3294,-8.3333,-8.3358,-8.3402,-8.3094,-8.3093,-8.3093,-8.2963,-8.2956,-8.3104,-8.3114,-8.3183,-8.3211,-8.3265,-8.3297,-8.3266,-8.3326,-8.336,-8.355,-8.3596,-8.3614,-8.366,-8.3403,-8.3403,-8.3404,-8.3404,-8.3222,-8.3313,-8.3272,-8.3402,-8.3392,-8.3499,-8.3531,-8.3505,-8.3602,-8.3523,-8.3568,-8.3483,-8.3646,-8.3685,-8.3411,-8.341,-8.3409,-8.3408,-8.3408,-8.3392,-8.3435,-8.3461,-8.3564,-8.3644,-8.3647,-8.3743,-8.3729,-8.3716,-8.3761,-8.3795,-8.3794,-8.3791,-8.3778,-8.3779,-8.378,-8.378,-8.3781,-8.3781,-8.3559,-8.3585,-8.367,-8.3736,-8.3781,-8.3837,-8.3868,-8.391,-8.3953,-8.3935,-8.3935,-8.3898,-8.3664,-8.3606,-8.3791,-8.379,-8.3788,-8.3787,-8.3787,-8.3824,-8.3763,-8.3895,-8.394,-8.4016,-8.4097,-8.4079,-8.4167,-8.4199,-8.4247,-8.4201,-8.403,-8.4009,-8.3989,-8.3941,-8.4202,-8.4202,-8.4202,-8.4202,-8.3969,-8.3958,-8.4091,-8.4164,-8.4234,-8.4233,-8.4379,-8.4404,-8.4418,-8.4438,-8.4398,-8.4332,-8.4313,-8.4303,-8.4277,-8.4232,-8.4561,-8.4561,-8.4562,-8.4132,-8.4128,-8.4257,-8.4275,-8.4334,-8.4384,-8.4521,-8.4605,-8.4608,-8.4576,-8.4453,-8.4438,-8.4332,-8.4298,-8.4263,-8.4222,-8.4139,0,0]}]]